Wind_Speed
2 4 5 6 4 6 11 13 13 11 8 7 6 4 2 0 1 2 6 3 5 7 6 6 8 10 10 10 10 10 10 9 8 7 6 4 4 4 5 5 4 4 4 4 5 6 7 8 8
3 5 8 7 8 11 12 12 9 10 9 8 6 5 2 2 2 6 8 7 6 7 7 6 8 10 12 13 14 13 12 11 9 8 7 5 5 5 6 6 5 6 5 4 4 4 5 6 6
5 8 9 9 9 8 8 9 10 9 9 8 4 3 3 3 4 8 8 6 5 4 3 5 5 9 12 13 14 14 13 11 10 9 9 7 6 6 7 7 7 7 6 6 7 7 6 6 6
8 11 8 10 12 10 9 8 10 8 6 5 3 1 2 2 2 3 4 5 6 5 5 4 2 2 7 10 13 13 13 12 11 11 10 9 7 7 8 9 10 9 8 8 8 8 8 8 7
11 11 7 9 9 9 9 6 7 6 4 4 5 5 1 4 1 3 5 7 8 10 11 10 6 2 3 8 12 14 14 14 13 12 12 11 10 9 9 10 11 11 10 11 10 11 10 9 10
8 7 8 7 7 9 9 6 8 4 2 2 4 5 4 3 5 3 4 6 7 5 5 7 7 4 2 5 9 12 13 14 13 14 14 14 13 11 11 12 14 14 13 12 12 12 13 12 12
6 8 7 8 12 13 10 7 5 4 2 2 2 2 3 4 5 6 4 4 5 7 5 4 4 2 5 6 7 9 11 12 14 15 15 15 15 15 15 15 16 17 16 15 15 15 15 14 14
5 5 7 10 14 12 10 10 8 4 2 2 3 2 3 3 2 5 5 6 7 10 11 8 5 2 1 2 5 7 10 13 14 15 15 15 16 17 19 20 19 19 20 19 18 17 16 16 16
5 5 6 8 10 5 9 9 6 4 2 4 6 5 4 4 2 2 4 6 7 9 11 10 7 5 3 4 5 8 10 11 12 13 14 14 16 17 19 20 20 21 23 23 22 22 21 19 19
9 6 7 6 4 7 4 7 5 4 6 5 6 7 6 4 3 2 3 6 8 9 11 9 4 5 6 7 7 8 8 9 11 13 13 14 16 18 19 21 21 22 24 25 26 27 27 25 23
14 13 10 8 8 8 6 5 8 8 7 8 10 12 12 11 8 7 4 5 9 12 12 9 6 7 8 9 10 9 10 11 12 13 14 16 18 20 21 22 24 25 27 28 28 29 30 29 28
15 15 16 15 14 12 12 12 11 15 10 11 12 15 16 14 12 8 5 5 8 9 8 5 4 5 8 9 10 11 12 12 14 15 16 17 18 20 22 23 24 25 27 29 30 30 30 32 32
15 15 17 17 19 19 18 18 17 19 15 14 13 13 12 8 10 13 8 6 5 6 4 5 2 2 4 6 9 10 11 14 16 16 16 17 17 16 17 19 22 24 27 29 30 29 28 30 31
15 16 17 17 16 21 24 23 24 22 19 17 13 14 15 14 11 10 9 6 4 3 4 4 2 3 3 3 6 8 10 13 14 16 15 14 14 16 19 20 22 25 27 30 30 31 30 30 27
16 18 19 17 17 20 23 25 26 22 19 18 17 17 18 14 13 10 10 7 5 5 7 6 5 4 6 4 3 3 4 8 12 13 13 13 14 16 17 18 21 23 26 29 31 33 32 31 31
16 17 18 11 12 13 17 16 14 11 10 11 12 12 12 11 11 12 12 10 9 8 9 12 12 9 8 8 8 9 9 10 10 12 13 14 15 14 13 16 20 25 27 28 28 33 35 36 33
13 12 14 15 10 9 10 11 9 7 8 10 13 13 10 10 11 14 15 13 13 13 14 16 17 16 15 14 14 14 14 14 11 13 13 14 15 16 18 20 23 26 29 31 30 32 36 39 38
8 10 13 13 11 13 15 14 10 11 14 17 20 18 18 17 13 16 17 18 19 18 18 20 20 21 22 22 21 18 19 18 16 17 18 16 16 15 20 22 27 29 31 34 34 35 38 39 39
16 16 17 14 13 19 19 23 16 15 20 21 23 24 26 24 22 24 23 22 24 25 24 24 24 25 27 25 26 22 23 22 21 20 20 17 16 18 22 28 30 29 32 36 39 39 40 41 40
14 16 16 14 14 18 18 24 22 22 24 25 24 23 22 24 24 25 27 30 30 28 26 29 28 30 30 30 27 26 27 26 25 21 20 19 20 21 26 35 33 35 37 38 39 40 43 45 44
16 16 12 14 15 19 23 26 18 15 17 19 21 19 18 15 12 14 16 16 20 21 23 26 28 29 31 30 30 30 29 28 25 22 23 22 23 24 38 41 40 42 39 36 36 38 40 42 42
15 11 10 10 12 7 14 13 24 19 17 16 18 21 15 15 14 16 18 18 16 18 21 21 21 27 30 28 31 30 30 29 26 24 23 24 27 34 43 44 47 46 39 36 35 35 36 38 37
11 10 12 12 14 19 18 11 22 26 22 9 7 8 13 18 20 25 21 21 19 19 18 16 16 20 25 29 30 29 30 28 26 26 26 28 35 43 46 47 52 44 40 37 32 31 32 33 35
10 10 13 16 17 8 13 11 14 11 12 7 14 16 21 24 22 19 15 13 16 16 14 13 13 17 23 25 26 25 27 27 27 29 31 37 43 43 45 52 43 40 39 38 36 33 31 31 32
12 11 5 3 2 6 7 8 24 20 23 20 16 23 22 19 20 16 9 9 11 11 11 11 12 15 18 20 21 22 25 27 30 34 38 43 42 42 47 43 38 36 36 36 36 38 37 32 31
11 17 8 4 5 8 15 10 15 14 18 23 24 17 12 17 19 14 12 12 14 14 12 12 14 16 18 19 20 22 25 30 36 40 42 43 41 43 42 36 36 36 36 35 38 38 35 33 32
17 21 21 19 24 8 16 27 25 28 23 20 15 14 16 22 19 17 17 16 20 16 15 17 18 20 20 21 24 26 29 38 41 40 40 39 41 42 35 38 39 38 36 36 39 39 36 35 34
20 17 10 9 5 12 8 12 17 27 18 13 16 19 23 24 15 20 21 18 18 18 20 21 21 24 26 28 29 31 37 41 38 38 39 41 39 35 38 41 42 40 37 38 39 39 37 37 36
22 22 20 22 20 8 10 9 4 4 11 20 28 25 21 16 28 26 24 25 21 23 25 24 26 29 31 32 33 37 39 36 40 40 42 34 36 39 43 45 43 41 39 38 40 39 39 39 37
28 32 30 26 17 25 23 34 37 30 24 21 13 27 31 36 29 27 29 25 25 25 27 31 32 34 33 35 38 38 35 42 39 41 35 36 40 44 48 46 44 40 41 39 38 35 35 36 37
Wind_Direction
190 149 141 127 132 130 120 116 111 106 101 101 71 48 110 338 176 222 180 134 124 108 128 173 188 203 205 199 205 213 220 224 228 235 242 263 279 301 303 313 335 359 10 29 36 43 47 46 41
149 161 140 115 124 127 135 125 116 110 104 95 90 81 92 355 200 126 139 134 110 108 124 154 180 200 208 204 207 213 221 227 234 242 246 267 272 281 300 303 320 322 324 340 353 13 20 25 17
155 151 136 119 122 109 104 132 133 118 102 87 66 97 85 99 121 122 118 111 98 81 114 151 178 202 213 215 214 219 227 236 243 249 252 266 277 294 297 299 302 298 313 317 326 332 338 345 347
155 151 141 126 124 118 114 138 139 110 107 87 101 103 114 114 133 110 99 82 68 48 46 59 55 232 237 236 231 233 236 241 249 254 259 269 272 288 292 299 297 296 298 295 296 301 304 313 318
154 150 139 137 139 136 135 156 147 125 106 75 26 359 158 124 55 73 75 52 51 50 48 56 64 79 211 227 235 236 238 243 249 255 259 261 261 275 286 291 289 290 289 290 294 293 292 291 297
149 144 142 137 140 143 144 140 173 157 125 41 21 58 121 51 95 46 64 63 18 21 53 69 74 94 129 216 220 230 237 240 246 251 254 258 262 266 276 284 285 282 280 281 281 284 287 286 289
140 134 135 133 123 137 143 130 124 178 209 273 192 66 91 86 97 85 92 29 34 46 41 35 41 132 167 187 207 217 227 236 241 247 253 260 264 266 272 281 285 278 276 275 275 277 279 280 281
147 155 137 127 129 128 143 150 159 183 200 256 229 155 167 112 38 25 35 55 40 31 21 8 353 337 277 211 208 220 225 236 244 251 256 260 265 268 273 278 280 276 274 273 273 274 277 277 277
183 181 157 142 145 114 141 137 149 172 203 220 240 234 245 281 289 313 325 346 3 2 359 355 344 326 288 260 235 228 230 238 247 252 256 262 264 266 270 272 274 273 274 275 276 276 273 272 273
231 203 198 184 179 157 148 165 187 183 218 250 263 272 265 261 290 234 282 315 338 341 328 325 308 284 261 247 249 246 246 246 248 252 258 263 267 268 269 272 275 277 278 277 277 276 276 276 274
243 236 231 229 225 210 212 208 222 238 232 263 281 274 285 285 282 281 259 292 314 320 315 305 294 266 251 240 237 244 246 247 250 253 257 261 266 270 275 279 281 281 282 279 277 276 276 276 277
256 253 251 238 243 249 255 245 250 249 265 268 287 293 274 271 275 280 231 281 316 308 305 308 293 268 249 248 242 238 241 249 255 258 260 266 273 276 280 285 288 286 283 282 280 279 281 280 278
263 264 264 257 258 259 261 260 269 261 265 281 288 297 275 260 262 273 241 256 300 284 315 8 324 256 239 241 244 248 252 251 253 259 268 275 282 292 296 291 288 285 285 285 285 288 283 282 277
266 267 272 269 266 268 269 273 269 281 278 276 280 285 278 271 256 240 224 243 292 275 289 339 352 207 218 243 247 249 257 264 267 269 276 282 287 288 293 296 299 299 298 297 295 295 294 292 287
266 272 271 274 273 273 273 272 279 282 263 260 269 275 268 267 248 235 217 229 265 277 291 296 307 286 257 261 277 284 302 301 271 266 263 266 274 287 295 302 303 302 303 303 300 295 290 286 280
272 275 281 271 268 268 271 287 288 270 265 246 257 257 257 261 251 232 228 234 249 268 289 276 279 268 261 267 270 276 284 309 270 250 247 257 271 283 302 311 311 313 309 303 293 294 291 283 277
268 268 277 277 272 246 266 273 265 241 228 241 259 272 274 261 254 250 242 236 244 256 262 269 272 275 270 268 265 273 276 277 269 253 259 275 285 298 311 314 315 314 308 302 293 290 289 289 284
253 266 278 277 262 256 271 270 241 227 232 253 262 275 281 281 279 260 252 249 247 256 259 261 264 267 266 264 258 268 274 278 291 279 267 275 280 290 304 316 317 313 305 298 293 288 285 283 283
258 261 272 282 279 280 266 267 259 245 255 265 271 274 280 282 274 268 265 260 261 264 261 254 259 259 263 265 260 265 275 278 283 273 265 264 271 288 308 316 314 303 300 294 288 282 281 280 279
254 254 265 285 277 286 284 275 267 261 266 272 275 276 276 278 276 274 272 267 263 260 263 255 251 251 254 257 259 266 270 276 275 270 263 266 273 293 309 316 313 311 309 298 287 281 277 277 276
247 249 270 287 294 291 294 288 280 274 276 277 280 274 277 280 275 272 278 271 258 250 250 248 246 249 252 254 260 269 271 273 269 265 264 273 284 299 314 317 317 317 308 296 288 282 280 280 280
246 254 275 278 294 287 307 298 291 294 289 281 268 264 258 259 270 280 282 277 272 255 254 251 245 243 247 257 265 267 269 266 267 266 270 284 297 301 315 318 320 316 307 299 290 283 281 280 282
243 262 277 279 282 290 284 275 288 301 304 283 276 259 257 258 260 286 285 264 260 257 256 255 253 251 247 252 261 266 270 267 268 270 281 291 303 313 317 317 317 312 307 303 297 289 285 282 278
242 254 274 282 278 264 267 236 288 304 294 273 292 298 286 284 293 292 278 260 251 252 258 264 268 257 248 257 267 270 272 270 274 281 288 299 306 308 311 316 313 310 310 309 307 303 297 285 275
231 253 298 264 207 257 243 217 268 275 274 276 278 301 294 297 303 299 280 272 271 263 261 268 272 260 254 264 281 280 277 280 285 290 294 302 301 306 311 311 311 313 311 306 302 299 294 283 276
246 241 226 273 269 283 284 248 277 278 272 272 288 297 292 313 313 300 288 296 305 288 276 277 276 269 275 280 281 282 287 288 288 290 297 296 303 308 310 308 315 312 308 302 297 292 288 278 271
249 245 261 255 267 278 259 268 265 279 276 275 284 284 292 308 308 290 285 290 312 292 277 273 269 273 277 277 277 276 290 295 286 285 291 300 303 306 303 309 314 311 303 295 289 286 283 278 272
246 256 247 238 273 268 234 263 256 282 278 269 296 304 293 307 306 288 286 291 302 281 272 270 273 276 280 278 280 287 293 288 284 288 297 297 301 300 307 311 310 305 299 291 284 282 280 277 275
245 239 241 257 248 267 289 256 218 252 272 279 294 296 294 306 313 296 278 283 289 275 265 265 272 275 277 278 285 288 284 283 287 292 294 299 297 305 310 308 303 300 297 288 281 279 278 277 276
257 255 254 246 252 253 268 271 271 265 270 274 283 301 293 302 309 294 281 278 288 270 268 277 278 277 276 280 283 281 281 288 284 291 298 294 305 308 308 304 301 296 291 288 282 283 282 278 276
Height
3152 3154 3154 3156 3161 3158 3158 3160 3160 3161 3163 3163 3164 3165 3166 3166 3167 3170 3168 3168 3168 3168 3169 3170 3170 3171 3173 3174 3177 3180 3181 3182 3183 3185 3186 3186 3187 3187 3188 3187 3187 3188 3188 3189 3190 3189 3189 3189 3189
3152 3153 3155 3155 3158 3158 3159 3159 3160 3162 3163 3164 3165 3166 3167 3167 3167 3168 3169 3170 3169 3168 3168 3169 3169 3170 3171 3173 3175 3178 3180 3182 3184 3185 3186 3187 3187 3187 3187 3188 3188 3189 3190 3190 3190 3189 3189 3189 3189
3152 3154 3156 3155 3156 3158 3159 3160 3161 3162 3164 3165 3167 3167 3168 3168 3169 3169 3170 3170 3170 3169 3168 3168 3168 3168 3169 3171 3174 3177 3180 3182 3183 3184 3186 3187 3187 3187 3187 3187 3187 3189 3189 3190 3190 3190 3190 3189 3189
3152 3155 3157 3157 3158 3159 3160 3161 3162 3163 3164 3166 3167 3168 3169 3169 3169 3170 3170 3170 3170 3171 3170 3169 3169 3170 3171 3173 3174 3176 3179 3180 3182 3184 3185 3186 3186 3185 3185 3185 3186 3187 3187 3187 3188 3188 3188 3188 3187
3153 3154 3155 3156 3158 3159 3160 3161 3163 3164 3165 3166 3167 3168 3168 3169 3169 3169 3170 3170 3171 3171 3171 3171 3171 3171 3172 3173 3175 3176 3178 3180 3181 3183 3184 3184 3184 3185 3185 3184 3184 3184 3185 3186 3186 3187 3186 3186 3185
3154 3155 3156 3157 3158 3159 3161 3161 3163 3164 3165 3165 3167 3167 3168 3169 3169 3169 3169 3170 3171 3170 3170 3169 3169 3170 3171 3173 3174 3176 3178 3179 3180 3181 3182 3183 3183 3184 3183 3183 3182 3182 3183 3183 3184 3184 3185 3185 3184
3154 3154 3155 3156 3158 3159 3160 3162 3162 3164 3165 3166 3167 3167 3168 3168 3169 3169 3169 3169 3169 3168 3167 3167 3167 3168 3169 3171 3173 3174 3176 3177 3178 3179 3180 3181 3181 3182 3182 3182 3181 3180 3180 3181 3181 3182 3182 3182 3182
3154 3155 3155 3157 3158 3159 3159 3161 3162 3163 3164 3164 3166 3166 3167 3167 3168 3168 3168 3167 3167 3166 3166 3166 3167 3168 3169 3170 3171 3173 3173 3174 3175 3177 3178 3178 3179 3179 3179 3179 3178 3177 3176 3177 3178 3178 3179 3179 3179
3154 3156 3156 3156 3157 3159 3159 3160 3161 3162 3163 3164 3164 3166 3166 3167 3167 3167 3167 3166 3166 3166 3166 3167 3167 3167 3168 3169 3170 3170 3171 3172 3174 3175 3175 3175 3176 3176 3175 3175 3174 3173 3172 3173 3174 3174 3174 3174 3174
3153 3155 3155 3155 3156 3157 3158 3159 3159 3161 3161 3163 3163 3164 3165 3165 3165 3165 3166 3165 3165 3165 3166 3165 3165 3165 3166 3167 3168 3169 3170 3170 3171 3171 3172 3173 3173 3172 3172 3172 3172 3172 3171 3170 3171 3170 3169 3169 3169
3150 3152 3154 3154 3155 3156 3157 3158 3159 3159 3160 3161 3162 3162 3163 3164 3164 3164 3164 3164 3164 3163 3163 3162 3162 3162 3163 3165 3165 3166 3167 3168 3168 3169 3169 3169 3169 3169 3169 3170 3170 3169 3167 3166 3165 3164 3163 3163 3164
3148 3149 3150 3152 3153 3154 3155 3155 3156 3156 3159 3158 3158 3158 3159 3160 3161 3162 3161 3161 3161 3161 3161 3160 3159 3160 3161 3161 3162 3162 3163 3164 3165 3165 3166 3166 3167 3167 3167 3167 3166 3165 3163 3161 3160 3159 3159 3159 3159
3145 3146 3146 3148 3149 3150 3151 3152 3152 3152 3154 3154 3154 3154 3155 3156 3157 3158 3158 3158 3158 3159 3158 3158 3157 3157 3158 3158 3158 3159 3160 3160 3160 3161 3162 3163 3163 3163 3163 3162 3161 3159 3158 3156 3155 3154 3154 3153 3152
3143 3143 3144 3145 3146 3144 3145 3147 3146 3148 3150 3150 3150 3151 3151 3152 3153 3153 3154 3155 3155 3155 3156 3155 3155 3155 3156 3156 3155 3155 3156 3156 3157 3158 3159 3159 3160 3159 3159 3158 3157 3155 3153 3152 3151 3150 3148 3147 3145
3140 3140 3140 3141 3142 3141 3139 3141 3141 3141 3143 3145 3146 3147 3147 3148 3149 3150 3151 3151 3152 3152 3152 3152 3152 3153 3153 3153 3154 3154 3154 3154 3154 3154 3154 3154 3154 3154 3154 3154 3152 3150 3148 3147 3145 3144 3142 3140 3140
3137 3137 3136 3137 3137 3137 3137 3137 3139 3138 3138 3139 3141 3142 3143 3144 3145 3145 3146 3148 3149 3149 3150 3150 3150 3150 3151 3151 3151 3152 3151 3150 3149 3149 3149 3148 3149 3148 3147 3147 3147 3146 3144 3143 3140 3138 3136 3134 3134
3133 3134 3133 3135 3134 3135 3135 3135 3135 3136 3137 3137 3138 3138 3139 3139 3140 3142 3143 3144 3145 3146 3146 3146 3146 3146 3146 3147 3147 3147 3147 3147 3145 3144 3144 3144 3144 3144 3143 3142 3141 3139 3138 3136 3134 3132 3130 3127 3124
3129 3130 3130 3131 3132 3131 3131 3131 3133 3133 3133 3134 3134 3134 3134 3135 3136 3137 3138 3139 3140 3141 3142 3141 3142 3142 3141 3141 3141 3141 3141 3141 3140 3140 3139 3139 3139 3138 3138 3137 3135 3133 3131 3128 3126 3124 3121 3119 3117
3126 3127 3126 3128 3128 3126 3126 3125 3128 3130 3128 3129 3129 3129 3129 3129 3131 3131 3132 3133 3134 3135 3135 3135 3136 3136 3135 3135 3135 3135 3135 3136 3135 3134 3134 3134 3133 3132 3131 3130 3128 3125 3122 3120 3117 3114 3111 3110 3108
3122 3123 3124 3124 3124 3122 3121 3118 3121 3124 3124 3124 3123 3123 3123 3122 3122 3123 3124 3125 3126 3127 3128 3128 3128 3128 3128 3128 3129 3129 3130 3130 3130 3129 3128 3128 3127 3125 3124 3122 3120 3117 3112 3109 3106 3102 3100 3099 3099
3118 3119 3122 3123 3122 3120 3116 3111 3114 3117 3118 3117 3116 3116 3117 3116 3116 3116 3116 3116 3117 3118 3119 3119 3121 3122 3122 3123 3123 3124 3124 3124 3123 3123 3123 3121 3120 3119 3117 3113 3110 3106 3102 3099 3096 3094 3091 3088 3086
3116 3118 3119 3119 3119 3118 3116 3109 3106 3110 3112 3112 3111 3109 3109 3110 3110 3110 3110 3110 3110 3110 3111 3112 3113 3114 3115 3117 3118 3118 3118 3118 3118 3117 3116 3116 3115 3112 3108 3103 3100 3097 3093 3090 3087 3083 3081 3079 3077
3115 3116 3117 3116 3115 3114 3113 3114 3100 3104 3105 3104 3104 3104 3104 3104 3104 3103 3103 3103 3104 3104 3104 3105 3106 3108 3111 3112 3112 3113 3112 3112 3112 3111 3110 3109 3107 3103 3098 3093 3088 3085 3083 3080 3077 3076 3073 3070 3069
3113 3114 3114 3112 3111 3109 3106 3108 3097 3100 3101 3101 3101 3100 3099 3097 3096 3095 3095 3096 3097 3097 3099 3100 3100 3102 3105 3106 3107 3107 3107 3107 3107 3105 3104 3102 3098 3094 3089 3085 3080 3076 3073 3071 3067 3065 3064 3062 3060
3111 3113 3112 3109 3108 3103 3100 3102 3094 3097 3097 3095 3096 3096 3094 3093 3092 3091 3090 3090 3091 3092 3093 3094 3095 3096 3099 3100 3099 3100 3100 3099 3098 3096 3094 3093 3088 3085 3082 3077 3073 3070 3065 3062 3059 3057 3055 3054 3052
3109 3110 3111 3107 3103 3100 3100 3091 3088 3090 3091 3091 3091 3091 3089 3088 3087 3086 3086 3086 3086 3086 3087 3087 3089 3091 3091 3092 3092 3092 3091 3090 3089 3085 3084 3083 3080 3077 3074 3071 3066 3062 3059 3055 3052 3049 3047 3045 3043
3105 3104 3106 3104 3100 3097 3089 3083 3082 3083 3082 3085 3086 3086 3086 3084 3083 3082 3082 3082 3081 3081 3082 3083 3084 3085 3086 3085 3085 3085 3085 3084 3082 3079 3076 3074 3072 3068 3066 3062 3059 3054 3050 3046 3042 3039 3037 3035 3033
3101 3102 3102 3101 3097 3087 3078 3076 3074 3076 3078 3080 3081 3081 3080 3080 3080 3081 3080 3079 3079 3078 3078 3079 3079 3080 3080 3078 3077 3077 3076 3073 3072 3069 3068 3065 3062 3060 3057 3053 3047 3042 3037 3034 3030 3028 3026 3023 3022
3097 3096 3097 3096 3092 3083 3074 3066 3068 3071 3072 3074 3075 3075 3076 3075 3075 3074 3074 3073 3073 3075 3073 3073 3073 3073 3071 3072 3071 3068 3065 3063 3060 3059 3057 3053 3051 3047 3043 3039 3034 3028 3024 3021 3018 3015 3014 3013 3012
3088 3089 3092 3090 3083 3077 3074 3044 3060 3065 3066 3066 3069 3070 3071 3069 3068 3068 3066 3065 3065 3065 3066 3067 3066 3066 3065 3063 3061 3058 3055 3052 3050 3049 3046 3044 3042 3037 3032 3025 3020 3017 3014 3010 3006 3005 3004 3002 3001